Regional Weather Roundup
Issued by NWS

Home | Current Version | Previous Version | Text Only | Print | Product List | Glossary Off
Versions: 1 2 3 4 5 6 7 8 9 10 11 12 13 14 15 16 17 18 19 20 21 22 23 24 25 26 27 28 29 30 31 32 33 34 35 36 37 38 39 40 41 42 43 44 45 46 47 48 49 50

000
ASUS43 KLOT 291106
RWRIL

ILLINOIS REGIONAL WEATHER ROUNDUP
NATIONAL WEATHER SERVICE CHICAGO/ROMEOVILLE IL
500 AM CST MON DEC 29 2014

NOTE: "FAIR" INDICATES FEW OR NO CLOUDS BELOW 12,000 FEET WITH NO
SIGNIFICANT WEATHER AND/OR OBSTRUCTIONS TO VISIBILITY.

* THESE STATIONS ARE NOT UNDER NWS QUALITY CONTROL. THEY ALSO MAY NOT
  REPORT WEATHER SUCH AS PRECIPITATION OR FOG.

ILZ001-002-007-009-015-016-024-291200-
NORTHWEST ILLINOIS

CITY           SKY/WX    TMP DP  RH WIND       PRES   REMARKS
MOLINE         CLOUDY    23  19  85 CALM      30.28S
STERLING*      MOCLDY    27  19  74 NE7       30.29R WCI  19
SAVANNA*       CLOUDY    28  22  80 NE9       30.30R WCI  19
$$

ILZ003-004-008-010-011-017-018-291200-
NORTH CENTRAL ILLINOIS

CITY           SKY/WX    TMP DP  RH WIND       PRES   REMARKS
ROCKFORD       CLOUDY    25  20  81 NE7       30.31S WCI  17
FREEPORT*      CLOUDY    24  21  87 N6        30.31S WCI  17
ROCHELLE*      MOCLDY    25  21  86 NE8       30.29R WCI  16
DE KALB*       PTCLDY    23  19  85 N5        30.28R WCI  17
PERU*          PTCLDY    24  20  85 NE5       30.28S WCI  18
$$

ILZ005-006-012>014-019>023-291200-
NORTHEAST ILLINOIS

CITY           SKY/WX    TMP DP  RH WIND       PRES   REMARKS
CHICAGO-OHARE  MOCLDY    26  18  71 N8        30.27S WCI  18
CHICAGO-MIDWAY PTCLDY    29  21  72 N7        30.27S WCI  22
AURORA         PTCLDY    23  17  78 N3        30.28S
LANSING*       PTCLDY    23  20  89 NW3       30.26S
JOLIET*        PTCLDY    22  18  86 N3        30.27S
WAUKEGAN       MOCLDY    25  19  78 N7        30.28S WCI  17
DUPAGE AIRPORT PTCLDY    22  17  81 N6        30.27R WCI  14
KANKAKEE*      PTCLDY    24  20  83 CALM      30.27S
WHEELING       PTCLDY    26  19  74 N6        30.29S WCI  19
MORRIS*        PTCLDY    23  19  87 N3        30.27S
ROMEOVILLE*    PTCLDY    24  19  80 N6        30.27S WCI  17
NORTHERLY ISL    N/A     32  22  67 N9          N/A  WCI  24
$$

LMZ740>746-291200-
SOUTHERN LAKE MICHIGAN

STATION/POSITION SKY/WX   TEMP    WIND        PRES    VSBY  WAVE
                          AIR SEA DIR/SP/G                  HT/PER
                          (F)     (DEG/KT/KT) (MB)    (MI)  (FT/S)
WAUKEGAN HARBOR            27     340/  8/ 11   N/A
HARRISON CRIB              32     360/ 15/ 18   N/A
BURNHAM HARBOR             32     350/  8/ 11   N/A
CALUMET HARBOR             31     330/  8/ 11 1023.5F
MICHIGAN CITY              34     340/ 11/ 14   N/A
$$

ILZ025>027-034>036-040-047-049-050-058-095>099-291200-
WEST-CENTRAL ILLINOIS

CITY           SKY/WX    TMP DP  RH WIND       PRES   REMARKS
QUINCY         CLEAR     25  21  85 CALM      30.25S
GALESBURG*     CLEAR     19  17  93 CALM      30.26R
MACOMB*        MOCLDY    20  20  97 CALM      30.28S
JACKSONVILLE*  CLEAR     22  20  92 CALM      30.26S FOG
PITTSFIELD*    CLEAR     23  22  94 CALM      30.27R
$$

ILZ028>032-037-038-041>044-048-051>054-059>061-291200-
CENTRAL ILLINOIS

CITY           SKY/WX    TMP DP  RH WIND       PRES   REMARKS
PONTIAC        PTCLDY    22  19  88 CALM      30.28S
BLOOMINGTON    PTCLDY    23  20  89 N5        30.27R WCI  17
DECATUR        CLEAR     21  18  88 CALM      30.26R
PEORIA         PTCLDY    22  17  81 CALM      30.27F
LACON*         PTCLDY    17  15  91 CALM      30.27S
LINCOLN*       PTCLDY    22  20  93 CALM      30.29R
SPRINGFIELD    CLEAR     21  17  84 CALM      30.27S
TAYLORVILLE    CLEAR     23  21  93 CALM      30.27R FOG
$$

ILZ033-039-045-046-055>057-062-063-291200-
EAST-CENTRAL ILLINOIS

CITY           SKY/WX    TMP DP  RH WIND       PRES   REMARKS
CHAMPAIGN      CLEAR     19  15  84 N5        30.25S WCI  12
DANVILLE*      CLEAR     19  18  94 N6        30.23S WCI  11
RANTOUL*       PTCLDY    21  18  86 CALM      30.26S
MATTOON        CLEAR     21  19  92 CALM      30.25R
PARIS*         CLEAR     22  21  98 CALM      30.27S
$$

ILZ079-100>102-291200-
SOUTHWEST ILLINOIS

CITY           SKY/WX    TMP DP  RH WIND       PRES   REMARKS
ALTON          CLEAR     23  23  98 CALM      30.27R
BELLEVILLE     FAIR      22  22  99 N3        30.25S
CAHOKIA*       CLEAR     23  21  92 CALM      30.27R
SPARTA*        CLEAR     24  22  95 CALM      30.26R
$$

ILZ064>066-069>071-074>076-080>082-084>086-088>090-092>094-291200-
SOUTH-CENTRAL ILLINOIS

CITY           SKY/WX    TMP DP  RH WIND       PRES   REMARKS
CARBONDALE     PTCLDY    27  23  85 N3        30.24F
CAIRO*         CLOUDY    33  27  77 N8        30.23R WCI  26
EFFINGHAM*     CLEAR     23  20  89 CALM      30.27S
MARION         CLEAR     27  25  93 N3        30.24S
MT. VERNON     CLEAR     19  16  86 CALM      30.25R
CENTRALIA*     CLEAR     24  22  93 CALM      30.25S FOG
SALEM*         CLEAR     26  24  92 CALM      30.25F
METROPOLIS*    CLOUDY    31  28  86 NE3       30.21F
$$

ILZ067-068-072-073-078-083-087-091-291200-
SOUTHEAST ILLINOIS

CITY           SKY/WX    TMP DP  RH WIND       PRES   REMARKS
LAWRENCEVILLE  MOCLDY    25  22  88 N7        30.26F WCI  17
FLORA*         CLEAR     24  23  97 N3        30.26S
FAIRFIELD*     CLEAR     24  22  93 N5        30.24F WCI  18
HARRISBURG*    CLEAR     25  25  99 NE3       30.24F
ROBINSON*      CLEAR     21  21  98 CALM      30.27S
CARMI*         CLEAR     27  26  96 N6        30.23F WCI  20
$$

ABBREVIATIONS USED IN REMARKS
   TC - TEMPERATURE IN CELSIUS
  WCI - WIND CHILL INDEX
   HX - HEAT INDEX
  VSB - VISIBILITY
$$



USA.gov is the U.S. government's official web portal to all federal, state and local government web resources and services.